Sacramento, CA

6:19 AM PDT on June 19, 2018 (GMT -0700)
Sacramento Executive

Weather History for KSAC - October, 2017

Change the Weather History Date:

Tuesday, October 10, 2017

  Actual Average Record
Temperature  
Mean Temperature 66 °F -  
Max Temperature 82 °F 80 °F 100 °F (1991)
Min Temperature 49 °F 52 °F 42 °F (1985)
Degree Days  
Heating Degree Days 0    
Cooling Degree Days 1    
Growing Degree Days 15 (Base 50)    
Moisture  
Dew Point 38 °F    
Average Humidity 46    
Maximum Humidity 77    
Minimum Humidity 14    
Precipitation  
Precipitation 0.00 in 0.02 in 0.73 in (1984)
Month to date precipitation 0.00 0.17  
Year to date precipitation 23.63 12.41  
Sea Level Pressure  
Sea Level Pressure 29.91 in    
Wind  
Wind Speed 2 mph (SW)    
Max Wind Speed 9 mph    
Max Gust Speed -    
Visibility 8 miles    
Events      
T = Trace of Precipitation, MM = Missing Value Source: NWS Daily Summary

Daily Weather History Graph

Daily Weather History Graph

Search for Another Location

Airport or City:

Astronomy

Oct. 10, 2017 Rise Set
Actual Time 7:10 AM PDT 6:34 PM PDT
Civil Twilight 6:43 AM PDT 7:01 PM PDT
Nautical Twilight 6:13 AM PDT 7:31 PM PDT
Astronomical Twilight 5:42 AM PDT 8:02 PM PDT
Moon 10:46 PM PDT (10/10) 12:28 PM PDT (10/10)
Length of Visible Light 12h 17m
Length of Day
11h 24m
Waning Gibbous, 70% of the Moon is Illuminated
Oct 10
Waning Gibbous
Oct 12
Last Quarter
Oct 19
New
Oct 27
First Quarter
Nov 3
Full

Hourly Weather History & Observations

Time (PDT) Temp. Dew Point Humidity Pressure Visibility Wind Dir Wind Speed Gust Speed Precip Events Conditions
12:53 AM - - N/A% 29.96 in - North - - N/A   Unknown
1:53 AM - - N/A% 29.96 in - North - - N/A   Unknown
2:53 AM - - N/A% 29.96 in - North - - N/A   Unknown
3:53 AM - - N/A% 29.95 in - North - - N/A   Unknown
4:53 AM - - N/A% 29.95 in - North - - N/A   Unknown
5:53 AM - - N/A% 29.96 in - North - - N/A   Unknown
6:53 AM - - N/A% 29.96 in 10.0 mi Calm Calm - N/A   Clear
7:53 AM 48.9 °F 41.0 °F 74% 29.95 in 10.0 mi Calm Calm - N/A   Clear
8:53 AM 55.0 °F 39.9 °F 57% 29.96 in 10.0 mi Calm Calm - N/A   Clear
9:53 AM 63.0 °F 39.0 °F 41% 29.96 in 10.0 mi Calm Calm - N/A   Clear
10:53 AM 63.0 °F 39.0 °F 41% 29.96 in 10.0 mi Calm Calm - N/A   Clear
11:53 AM 73.9 °F 34.0 °F 23% 29.94 in 10.0 mi Calm Calm - N/A   Clear
12:53 PM 77.0 °F 34.0 °F 21% 29.92 in 10.0 mi SW 4.6 mph - N/A   Clear
1:53 PM 79.0 °F 32.0 °F 18% 29.89 in 10.0 mi Variable 3.5 mph - N/A   Clear
2:53 PM 81.0 °F 32.0 °F 17% 29.88 in 10.0 mi WSW 4.6 mph - N/A   Clear
3:53 PM 82.0 °F 28.9 °F 14% 29.86 in 10.0 mi Variable 4.6 mph - N/A   Clear
4:53 PM 79.0 °F 34.0 °F 20% 29.85 in 8.0 mi SW 6.9 mph - N/A   Mostly Cloudy
5:53 PM 75.0 °F 39.9 °F 28% 29.84 in 5.0 mi SW 3.5 mph - N/A   Haze
6:53 PM 70.0 °F 39.9 °F 33% 29.84 in 8.0 mi South 3.5 mph - N/A   Overcast
7:53 PM 66.0 °F 37.9 °F 36% 29.85 in 10.0 mi SW 5.8 mph - N/A   Overcast
8:53 PM 66.0 °F 41.0 °F 40% 29.85 in 8.0 mi Variable 5.8 mph - N/A   Overcast
9:53 PM 63.0 °F 43.0 °F 48% 29.86 in 7.0 mi SW 9.2 mph - N/A   Overcast
10:16 PM 62.1 °F 43.0 °F 50% 29.86 in 5.0 mi SW 6.9 mph - N/A   Haze
10:53 PM 61.0 °F 45.0 °F 56% 29.86 in 5.0 mi SW 5.8 mph - N/A   Haze
11:53 PM 59.0 °F 46.0 °F 62% 29.86 in 4.0 mi SW 5.8 mph - N/A   Haze